DECAYED

SL-16 DEB, 39853 (Decayed)

Orbit data source: Space-Track

SL-16 DEB, 39853 was space debris in LEO originally from a launch on Fri, 25 Dec 1992 UTC launched from the Tyuratam Missile And Space Complex (TTMTR). Debris objects in space refer to the collection of defunct objects orbiting the Earth. Examples of debris include non-operational satellites, rocket bodies, and fragments generated from explosions, collisions, or faulty payload assembly.

Not visible in the next 10 days
Identifier
39853, 1992-093LF
Orbit
Decayed
Country
Flag of CISCIS
Related business
Manufacturer
Unknown
Mission
Decayed spacecraft
Bus & Motor
Unknown
Mass
Unknown
Launch date (UTC)
1992-12-25 (33 years ago)
Launch vehicle
Unknown
Launch site
Tyuratam Missile And Space Complex (TTMTR)
Object type
Payload
Rocket body
Debris
Shape & HBR
Unknown shape, 0.1 m
Radar Cross Section
Small (<0.1 m²)

Expand to show TLE details & history
Last TLE update: 2 months ago

TLE from 2 months ago
0 SL-16 DEB
1 39853U 92093LF  26074.26203866  .00389489  00000-0  24364-2 0  9995
2 39853  71.2433 273.9074 0005181 335.0572  25.0385 15.75586425638752
Epoch: 2026-03-15T06:17Z
TLE epoch observation values (Epoch: 2026-03-15T06:17:20.140Z)
Latitude
0.00003°
Longitude
6.7021°
Altitude
342.403 km
Speed
7.705 km/s
True Right ascension
18h 15m 37s
True Declination
0° 00' 00"
Sunlit
Object was in daylight at epoch
Visualization orbit readout
Latitude
Unknown
Longitude
Unknown
Altitude
Unknown
Speed
Unknown
Apparent Right ascension
Unknown
Apparent Declination
Unknown
Sunlit
N/A
Visualization observer readout
Local Sidereal Time
15:50:03
Azimuth
Unknown
Elevation
Unknown
Doppler factor
Unknown
Orbital elements
Apogee altitude
344.189 km
Perigee altitude
337.227 km
Semi-major axis
6,718.845 km
Eccentricity
0.00052
Inclination
71.2433°
RAAN
273.9074°
Arg. of periapsis
335.0572°
True anomaly
25.06364°
Mean anomaly
25.0385°
Eccentric anomaly
25.05107°
Mean motion
3.94095 °/min
Orbital period
91.35 mins
BSTAR
0.0024364
Loading maneuver chart data...
Computing Atmospheric mass density...

Documentation

Showing up to 5 results
|